When you browse on this site, cookies collect data to enhance your experience and personalize the content and advertising you see.
Visit our Privacy Policy to learn more. By continuing to use the site, you agree to this use of cookies and data.
  • In France
  • List of Countries
  • For 7 days
  • Water Temperature
  • Satellite Maps
  • Weather Map
  • Weather Widgets
  • user-avatar
    Login

    Hourly Weather Hrazdan

    Today, 21 November, Wednesday

    Time Temperature Precipitation Wind Pressure Humidity
    00:00 +2°C° 0 mm 2 mps 611 mmHg 71%
    01:00 +2°C° 0 mm 2 mps 611 mmHg 71%
    02:00 +2°C° 0 mm 2 mps 610 mmHg 71%
    03:00 +1°C° 0 mm 3 mps 610 mmHg 70%
    04:00 +2°C° 0 mm 2 mps 610 mmHg 71%
    05:00 +1°C° 0 mm 2 mps 610 mmHg 72%
    06:00 +1°C° 0 mm 2 mps 610 mmHg 74%
    07:00 +2°C° 0 mm 2 mps 610 mmHg 70%
    08:00 +3°C° 0 mm 2 mps 610 mmHg 66%
    09:00 +4°C° 0 mm 3 mps 610 mmHg 62%
    10:00 +4°C° 0 mm 3 mps 610 mmHg 59%
    11:00 +5°C° 0 mm 3 mps 610 mmHg 56%
    12:00 +6°C° 0 mm 4 mps 610 mmHg 53%
    13:00 +7°C° 0 mm 3 mps 610 mmHg 54%
    14:00 +5°C° 0 mm 3 mps 610 mmHg 55%
    15:00 +5°C° 0 mm 3 mps 609 mmHg 56%
    16:00 +5°C° 0.1 mm 2 mps 609 mmHg 60%
    17:00 +4°C° 0.1 mm 2 mps 609 mmHg 65%
    18:00 +3°C° 0.1 mm 2 mps 609 mmHg 70%
    19:00 +3°C° 0.1 mm 2 mps 609 mmHg 71%
    20:00 +3°C° 0.1 mm 2 mps 609 mmHg 72%
    21:00 +3°C° 0.1 mm 2 mps 609 mmHg 73%
    22:00 +3°C° 0.1 mm 2 mps 609 mmHg 74%
    23:00 +2°C° 0.1 mm 2 mps 609 mmHg 75%

    Tomorrow, 22 November, Thursday

    Time Temperature Precipitation Wind Pressure Humidity
    00:00 +2°C° 0.1 mm 2 mps 609 mmHg 76%
    01:00 +2°C° 0.2 mm 2 mps 608 mmHg 77%
    02:00 +2°C° 0.2 mm 2 mps 608 mmHg 78%
    03:00 +2°C° 0.2 mm 2 mps 608 mmHg 80%
    04:00 +2°C° 0.3 mm 2 mps 608 mmHg 80%
    05:00 +2°C° 0.3 mm 2 mps 608 mmHg 81%
    06:00 +2°C° 0.3 mm 2 mps 608 mmHg 82%
    07:00 +2°C° 0.3 mm 2 mps 608 mmHg 81%
    08:00 +2°C° 0.3 mm 2 mps 608 mmHg 79%
    09:00 +3°C° 0.3 mm 2 mps 608 mmHg 78%
    10:00 +2°C° 0.2 mm 3 mps 608 mmHg 76%
    11:00 +3°C° 0.2 mm 3 mps 608 mmHg 74%
    12:00 +4°C° 0.2 mm 3 mps 608 mmHg 71%
    13:00 +4°C° 0.2 mm 3 mps 608 mmHg 71%
    14:00 +4°C° 0.2 mm 3 mps 608 mmHg 71%
    15:00 +4°C° 0.2 mm 3 mps 608 mmHg 72%
    16:00 +4°C° 0.3 mm 2 mps 608 mmHg 75%
    17:00 +4°C° 0.3 mm 2 mps 608 mmHg 78%
    18:00 +3°C° 0.3 mm 2 mps 608 mmHg 81%
    19:00 +3°C° 0.4 mm 2 mps 608 mmHg 81%
    20:00 +3°C° 0.4 mm 2 mps 608 mmHg 82%
    21:00 +4°C° 0.4 mm 1 mps 608 mmHg 83%
    22:00 +4°C° 0.3 mm 1 mps 608 mmHg 83%
    23:00 +3°C° 0.3 mm 1 mps 608 mmHg 84%

    Day after tomorrow, 23 November, Friday

    Time Temperature Precipitation Wind Pressure Humidity
    00:00 +3°C° 0.3 mm 1 mps 608 mmHg 84%
    01:00 +3°C° 0.2 mm 1 mps 608 mmHg 84%
    02:00 +3°C° 0.2 mm 1 mps 608 mmHg 84%
    03:00 +3°C° 0.2 mm 1 mps 608 mmHg 84%
    04:00 +3°C° 0.2 mm 1 mps 608 mmHg 84%
    05:00 +3°C° 0.2 mm 1 mps 608 mmHg 84%
    06:00 +2°C° 0.2 mm 1 mps 608 mmHg 84%
    07:00 +2°C° 0.1 mm 2 mps 609 mmHg 82%
    08:00 +3°C° 0.1 mm 2 mps 610 mmHg 79%
    09:00 +3°C° 0.1 mm 2 mps 610 mmHg 76%
    10:00 +4°C° 0.1 mm 2 mps 610 mmHg 74%
    11:00 +5°C° 0.1 mm 2 mps 610 mmHg 71%
    12:00 +5°C° 0.1 mm 2 mps 611 mmHg 68%
    13:00 +5°C° 0.1 mm 2 mps 610 mmHg 68%
    14:00 +5°C° 0.1 mm 2 mps 610 mmHg 67%
    15:00 +5°C° 0.1 mm 2 mps 610 mmHg 67%
    16:00 +5°C° 0.1 mm 1 mps 610 mmHg 71%
    17:00 +4°C° 0.1 mm 1 mps 611 mmHg 75%
    18:00 +3°C° 0.1 mm 1 mps 611 mmHg 80%
    19:00 +3°C° 0.1 mm 1 mps 611 mmHg 81%
    20:00 +3°C° 0.1 mm 1 mps 611 mmHg 81%
    21:00 +2°C° 0.1 mm 1 mps 612 mmHg 82%
    22:00 +2°C° 0 mm 1 mps 612 mmHg 84%
    23:00 +2°C° 0 mm 1 mps 612 mmHg 85%

    24 November, Saturday

    Time Temperature Precipitation Wind Pressure Humidity
    00:00 +1°C° 0 mm 1 mps 613 mmHg 87%
    01:00 +1°C° 0.1 mm 1 mps 613 mmHg 87%
    02:00 +2°C° 0.1 mm 1 mps 613 mmHg 88%
    03:00 +2°C° 0.1 mm 1 mps 614 mmHg 88%
    04:00 -1°C° 0 mm 2 mps 614 mmHg 89%
    05:00 -1°C° 0 mm 2 mps 614 mmHg 90%
    06:00 -1°C° 0 mm 2 mps 614 mmHg 90%
    07:00 -1°C° 0 mm 2 mps 615 mmHg 87%
    08:00 -1°C° 0 mm 2 mps 615 mmHg 84%
    09:00 +1°C° 0 mm 2 mps 616 mmHg 81%
    10:00 +1°C° 0 mm 2 mps 616 mmHg 78%
    11:00 +2°C° 0 mm 2 mps 616 mmHg 76%
    12:00 +2°C° 0 mm 2 mps 616 mmHg 74%
    13:00 +2°C° 0.1 mm 2 mps 616 mmHg 75%
    14:00 +2°C° 0.1 mm 2 mps 616 mmHg 76%
    15:00 +2°C° 0.1 mm 2 mps 616 mmHg 77%
    16:00 +1°C° 0.1 mm 2 mps 616 mmHg 80%
    17:00 +1°C° 0.1 mm 2 mps 616 mmHg 82%
    18:00 -1°C° 0.1 mm 2 mps 617 mmHg 85%
    19:00 -1°C° 0 mm 2 mps 617 mmHg 86%
    20:00 -2°C° 0 mm 2 mps 617 mmHg 87%
    21:00 -2°C° 0 mm 2 mps 617 mmHg 88%
    22:00 -2°C° 0 mm 2 mps 617 mmHg 88%
    23:00 0°C° 0 mm 1 mps 616 mmHg 87%

    25 November, Sunday

    Time Temperature Precipitation Wind Pressure Humidity
    00:00 0°C° 0 mm 1 mps 616 mmHg 86%
    01:00 0°C° 0 mm 1 mps 616 mmHg 87%
    02:00 -1°C° 0 mm 1 mps 615 mmHg 87%
    03:00 -1°C° 0 mm 1 mps 615 mmHg 88%
    04:00 -1°C° 0 mm 1 mps 614 mmHg 87%
    05:00 -1°C° 0 mm 1 mps 614 mmHg 86%
    06:00 -1°C° 0 mm 1 mps 614 mmHg 85%
    07:00 0°C° 0 mm 1 mps 614 mmHg 81%
    08:00 +1°C° 0 mm 1 mps 614 mmHg 76%
    09:00 +2°C° 0 mm 1 mps 614 mmHg 71%
    10:00 +3°C° 0 mm 1 mps 613 mmHg 68%
    11:00 +4°C° 0 mm 1 mps 613 mmHg 65%
    12:00 +5°C° 0 mm 1 mps 612 mmHg 62%
    13:00 +5°C° 0 mm 1 mps 612 mmHg 61%
    14:00 +5°C° 0 mm 1 mps 612 mmHg 61%
    15:00 +5°C° 0 mm 1 mps 611 mmHg 61%
    16:00 +4°C° 0 mm 1 mps 611 mmHg 64%
    17:00 +3°C° 0 mm 1 mps 610 mmHg 68%
    18:00 +1°C° 0 mm 1 mps 610 mmHg 72%
    19:00 +1°C° 0 mm 1 mps 610 mmHg 71%
    20:00 +1°C° 0 mm 1 mps 609 mmHg 71%
    21:00 +1°C° 0 mm 1 mps 609 mmHg 70%
    22:00 +1°C° 0 mm 1 mps 609 mmHg 69%
    23:00 +1°C° 0 mm 1 mps 609 mmHg 68%

    26 November, Monday

    Time Temperature Precipitation Wind Pressure Humidity
    00:00 0°C° 0 mm 1 mps 609 mmHg 68%
    01:00 0°C° 0 mm 1 mps 609 mmHg 68%
    02:00 0°C° 0 mm 1 mps 609 mmHg 68%
    03:00 0°C° 0 mm 1 mps 609 mmHg 68%
    04:00 0°C° 0.1 mm 1 mps 609 mmHg 69%
    05:00 0°C° 0.1 mm 1 mps 609 mmHg 70%
    06:00 0°C° 0.1 mm 1 mps 609 mmHg 71%
    07:00 +1°C° 0.1 mm 1 mps 609 mmHg 69%
    08:00 +1°C° 0.1 mm 2 mps 610 mmHg 67%
    09:00 +2°C° 0.1 mm 2 mps 610 mmHg 66%
    10:00 +3°C° 0 mm 2 mps 610 mmHg 63%
    11:00 +3°C° 0 mm 2 mps 610 mmHg 61%
    12:00 +4°C° 0 mm 2 mps 610 mmHg 59%
    13:00 +4°C° 0 mm 2 mps 610 mmHg 59%
    14:00 +4°C° 0 mm 2 mps 610 mmHg 59%
    15:00 +4°C° 0 mm 2 mps 609 mmHg 59%
    16:00 +3°C° 0 mm 2 mps 609 mmHg 64%
    17:00 +1°C° 0 mm 2 mps 609 mmHg 68%
    18:00 -1°C° 0 mm 2 mps 609 mmHg 73%
    19:00 -1°C° 0 mm 2 mps 610 mmHg 73%
    20:00 -1°C° 0 mm 2 mps 610 mmHg 74%
    21:00 -1°C° 0 mm 2 mps 610 mmHg 74%
    22:00 -2°C° 0 mm 2 mps 610 mmHg 75%
    23:00 -2°C° 0 mm 2 mps 610 mmHg 75%
    Show more